FDB2323 OTHH-OMDB

Flight info

Callsign FDB2323
Flight time 0h 42m
Altitude 21000
Route ALSEM L305 ITBUL M677 VUTEB
Aircraft B738/M-SDE2E3FGHIRWXY/LB1

Departure

Time 2026-05-03 22:53
Airport Hamad International Airport (OTHH)

Arrival

Time 2026-05-03 23:35
Airport Dubai International Airport (OMDB)
Time Latitude Longitude Altitude Speed Heading
2026-05-03 22:52 25.42491 51.85316 4520 ft 310 kts 102°
2026-05-03 22:53 25.42011 51.87706 4487 ft 326 kts 102°
2026-05-03 22:53 25.41511 51.90192 4997 ft 329 kts 102°
2026-05-03 22:53 25.41020 51.92623 6159 ft 319 kts 102°
2026-05-03 22:53 25.40543 51.94985 7254 ft 311 kts 103°
2026-05-03 22:54 25.40078 51.97288 8344 ft 302 kts 103°
2026-05-03 22:54 25.39626 51.99528 9411 ft 294 kts 103°
2026-05-03 22:54 25.39186 52.01707 10335 ft 291 kts 103°
2026-05-03 22:54 25.38732 52.03951 10674 ft 310 kts 103°
2026-05-03 22:55 25.38244 52.06361 10863 ft 332 kts 103°
2026-05-03 22:55 25.37723 52.08932 11075 ft 352 kts 103°
2026-05-03 22:55 25.37180 52.11612 11571 ft 360 kts 103°
2026-05-03 22:55 25.36630 52.14327 12249 ft 364 kts 103°
2026-05-03 22:56 25.36074 52.17064 12963 ft 366 kts 103°
2026-05-03 22:56 25.35556 52.19832 13636 ft 370 kts 97°
2026-05-03 22:56 25.35692 52.22676 14296 ft 374 kts 79°
2026-05-03 22:56 25.36228 52.25497 15003 ft 377 kts 77°
2026-05-03 22:57 25.36795 52.28344 15662 ft 381 kts 77°
2026-05-03 22:57 25.37368 52.31219 16315 ft 385 kts 77°
2026-05-03 22:57 25.37937 52.34122 16952 ft 388 kts 78°
2026-05-03 22:57 25.38502 52.37051 17580 ft 392 kts 78°
2026-05-03 22:58 25.39066 52.40014 18187 ft 395 kts 78°
2026-05-03 22:58 25.39630 52.43004 18779 ft 399 kts 78°
2026-05-03 22:58 25.40198 52.46023 19356 ft 402 kts 78°
2026-05-03 22:58 25.40768 52.49065 19914 ft 406 kts 78°
2026-05-03 22:59 25.41342 52.52134 20458 ft 409 kts 78°
2026-05-03 22:59 25.41921 52.55230 20943 ft 413 kts 78°
2026-05-03 22:59 25.42502 52.58342 20985 ft 413 kts 78°
2026-05-03 22:59 25.43082 52.61449 20996 ft 412 kts 78°
2026-05-03 23:00 25.43660 52.64551 21006 ft 412 kts 78°
2026-05-03 23:00 25.44239 52.67660 21008 ft 412 kts 78°
2026-05-03 23:00 25.44817 52.70769 21007 ft 413 kts 78°
2026-05-03 23:00 25.45395 52.73876 21005 ft 413 kts 78°
2026-05-03 23:01 25.45982 52.76992 21003 ft 413 kts 78°
2026-05-03 23:01 25.46568 52.80102 21001 ft 413 kts 78°
2026-05-03 23:01 25.47153 52.83211 21001 ft 413 kts 78°
2026-05-03 23:01 25.47798 52.86305 21000 ft 413 kts 76°
2026-05-03 23:02 25.48534 52.89369 21002 ft 412 kts 75°
2026-05-03 23:02 25.49305 52.92427 21002 ft 412 kts 74°
2026-05-03 23:02 25.50081 52.95484 21001 ft 412 kts 74°
2026-05-03 23:02 25.50851 52.98539 21001 ft 412 kts 74°
2026-05-03 23:03 25.51611 53.01592 21001 ft 412 kts 75°
2026-05-03 23:03 25.52365 53.04650 21001 ft 412 kts 75°
2026-05-03 23:03 25.53115 53.07708 21001 ft 412 kts 75°
2026-05-03 23:03 25.53862 53.10767 21001 ft 412 kts 75°
2026-05-03 23:04 25.54738 53.14362 21001 ft 412 kts 75°
2026-05-03 23:04 25.59933 53.35739 21005 ft 412 kts 75°
2026-05-03 23:04 25.73786 53.93167 21013 ft 412 kts 75°
2026-05-03 23:04 25.91420 54.67073 19632 ft 393 kts 77°
2026-05-03 23:05 25.96814 55.00089 19277 ft 372 kts 94°
2026-05-03 23:05 25.96129 55.02750 19500 ft 350 kts 121°
2026-05-03 23:05 25.94551 55.04650 19711 ft 326 kts 149°
2026-05-03 23:05 25.92503 55.05424 19919 ft 303 kts 179°
2026-05-03 23:06 25.90563 55.04981 20110 ft 285 kts 211°
2026-05-03 23:06 25.89088 55.03500 20407 ft 285 kts 232°
2026-05-03 23:06 25.87932 55.01696 20669 ft 290 kts 236°
2026-05-03 23:06 25.86800 54.99811 20829 ft 296 kts 236°
2026-05-03 23:07 25.85641 54.97934 20899 ft 293 kts 235°
2026-05-03 23:07 25.84453 54.96117 20945 ft 289 kts 233°
2026-05-03 23:07 25.83226 54.94358 20979 ft 287 kts 231°
2026-05-03 23:07 25.81944 54.92645 21000 ft 290 kts 229°
2026-05-03 23:08 25.80598 54.90975 21007 ft 292 kts 227°
2026-05-03 23:08 25.79194 54.89369 21013 ft 294 kts 225°
2026-05-03 23:08 25.77711 54.87767 21004 ft 295 kts 227°
2026-05-03 23:08 25.76432 54.85991 20913 ft 294 kts 237°
2026-05-03 23:09 25.75408 54.83983 20348 ft 304 kts 246°
2026-05-03 23:09 25.74681 54.81787 19790 ft 311 kts 255°
2026-05-03 23:09 25.74273 54.79418 19373 ft 313 kts 264°
2026-05-03 23:09 25.74216 54.77014 19064 ft 311 kts 274°
2026-05-03 23:10 25.74502 54.74653 18785 ft 308 kts 283°
2026-05-03 23:10 25.75092 54.72372 18475 ft 307 kts 288°
2026-05-03 23:10 25.75777 54.70138 18155 ft 306 kts 289°
2026-05-03 23:10 25.76476 54.67916 17843 ft 304 kts 289°
2026-05-03 23:11 25.77177 54.65708 17537 ft 303 kts 289°
2026-05-03 23:11 25.77876 54.63514 17227 ft 301 kts 289°
2026-05-03 23:11 25.78574 54.61328 16926 ft 300 kts 289°
2026-05-03 23:11 25.79269 54.59153 16625 ft 298 kts 289°
2026-05-03 23:12 25.79961 54.56991 16323 ft 297 kts 289°
2026-05-03 23:12 25.80650 54.54837 16022 ft 296 kts 289°
2026-05-03 23:12 25.81336 54.52691 15722 ft 294 kts 289°
2026-05-03 23:12 25.82019 54.50558 15424 ft 293 kts 289°
2026-05-03 23:13 25.82714 54.48440 15112 ft 291 kts 293°
2026-05-03 23:13 25.83628 54.46435 14820 ft 290 kts 294°
2026-05-03 23:13 25.83988 54.44252 14548 ft 295 kts 262°
2026-05-03 23:13 25.83201 54.42065 14360 ft 325 kts 232°
2026-05-03 23:14 25.81424 54.40440 14126 ft 338 kts 205°
2026-05-03 23:14 25.79156 54.39774 13895 ft 339 kts 185°
2026-05-03 23:14 25.76812 54.39890 13635 ft 338 kts 168°
2026-05-03 23:14 25.74652 54.40879 13367 ft 338 kts 145°
2026-05-03 23:15 25.73081 54.42787 13109 ft 337 kts 118°
2026-05-03 23:15 25.72226 54.45192 12892 ft 335 kts 107°
2026-05-03 23:15 25.71579 54.47674 12633 ft 335 kts 105°
2026-05-03 23:15 25.70973 54.50163 12378 ft 334 kts 105°
2026-05-03 23:16 25.70361 54.52646 12126 ft 334 kts 105°
2026-05-03 23:16 25.69734 54.55120 11873 ft 333 kts 106°
2026-05-03 23:16 25.69092 54.57584 11616 ft 332 kts 106°
2026-05-03 23:16 25.68443 54.60034 11369 ft 331 kts 107°
2026-05-03 23:17 25.67790 54.62473 11118 ft 330 kts 107°
2026-05-03 23:17 25.67135 54.64904 10870 ft 328 kts 107°
2026-05-03 23:17 25.66481 54.67322 10614 ft 327 kts 107°
2026-05-03 23:17 25.65829 54.69729 10365 ft 326 kts 107°
2026-05-03 23:18 25.65179 54.72127 10115 ft 324 kts 107°
2026-05-03 23:18 25.64532 54.74513 9859 ft 322 kts 107°
2026-05-03 23:18 25.63894 54.76864 9599 ft 315 kts 107°
2026-05-03 23:18 25.63269 54.79164 9349 ft 309 kts 107°
2026-05-03 23:19 25.62654 54.81423 9089 ft 303 kts 107°
2026-05-03 23:19 25.62023 54.83631 8826 ft 298 kts 113°
2026-05-03 23:19 25.60855 54.85474 8564 ft 293 kts 140°
2026-05-03 23:19 25.59120 54.86599 8322 ft 287 kts 162°
2026-05-03 23:20 25.57184 54.87017 8085 ft 281 kts 173°
2026-05-03 23:20 25.55254 54.87268 7827 ft 278 kts 174°
2026-05-03 23:20 25.53342 54.87498 7577 ft 275 kts 174°
2026-05-03 23:20 25.51451 54.87728 7324 ft 272 kts 174°
2026-05-03 23:21 25.49584 54.87961 7071 ft 269 kts 174°
2026-05-03 23:21 25.47740 54.88197 6814 ft 264 kts 174°
2026-05-03 23:21 25.45942 54.88430 6553 ft 257 kts 174°
2026-05-03 23:21 25.44176 54.88660 6305 ft 255 kts 174°
2026-05-03 23:22 25.40680 54.89119 5814 ft 251 kts 173°
2026-05-03 23:22 25.38950 54.89347 5555 ft 250 kts 173°
2026-05-03 23:22 25.37231 54.89573 5301 ft 248 kts 174°
2026-05-03 23:23 25.35550 54.89953 5026 ft 248 kts 153°
2026-05-03 23:23 25.34346 54.91242 4821 ft 241 kts 117°
2026-05-03 23:23 25.33982 54.92992 4587 ft 231 kts 88°
2026-05-03 23:23 25.34353 54.94667 4326 ft 223 kts 62°
2026-05-03 23:24 25.35313 54.95927 4069 ft 215 kts 35°
2026-05-03 23:24 25.36676 54.96565 3800 ft 208 kts
2026-05-03 23:24 25.37620 54.96588 3627 ft 203 kts 353°
2026-05-03 23:24 25.38950 54.96148 3374 ft 198 kts 329°
2026-05-03 23:25 25.40423 54.94987 3278 ft 197 kts 327°
2026-05-03 23:25 25.41724 54.94692 3251 ft 196 kts 13°
2026-05-03 23:25 25.42943 54.95366 3267 ft 199 kts 31°
2026-05-03 23:25 25.44125 54.96171 3254 ft 199 kts 31°
2026-05-03 23:26 25.44923 54.96709 3244 ft 198 kts 31°
2026-05-03 23:26 25.45911 54.97737 3232 ft 196 kts 63°
2026-05-03 23:26 25.45992 54.99664 3258 ft 197 kts 112°
2026-05-03 23:26 25.45578 55.00573 3260 ft 194 kts 120°
2026-05-03 23:27 25.44889 55.01825 3241 ft 187 kts 122°
2026-05-03 23:27 25.44209 55.03033 3241 ft 183 kts 122°
2026-05-03 23:27 25.43549 55.04209 3255 ft 178 kts 122°
2026-05-03 23:27 25.42909 55.05347 3258 ft 170 kts 122°
2026-05-03 23:28 25.42296 55.06443 3247 ft 166 kts 122°
2026-05-03 23:28 25.41689 55.07533 3245 ft 166 kts 122°
2026-05-03 23:28 25.41082 55.08623 3248 ft 166 kts 122°
2026-05-03 23:28 25.40483 55.09701 3249 ft 167 kts 122°
2026-05-03 23:29 25.39858 55.10800 3245 ft 167 kts 127°
2026-05-03 23:29 25.39137 55.11804 3252 ft 166 kts 129°
2026-05-03 23:29 25.38453 55.12812 3251 ft 167 kts 126°
2026-05-03 23:29 25.37801 55.13874 3248 ft 166 kts 123°
2026-05-03 23:30 25.37175 55.14952 3256 ft 162 kts 122°
2026-05-03 23:30 25.36599 55.15971 3257 ft 157 kts 122°
2026-05-03 23:30 25.36032 55.16987 3253 ft 156 kts 122°
2026-05-03 23:30 25.35465 55.18008 3252 ft 156 kts 122°
2026-05-03 23:31 25.34896 55.19036 3248 ft 157 kts 122°
2026-05-03 23:31 25.34327 55.20063 3244 ft 157 kts 122°
2026-05-03 23:31 25.33760 55.21089 3159 ft 157 kts 122°
2026-05-03 23:31 25.33190 55.22119 2952 ft 156 kts 122°
2026-05-03 23:32 25.32628 55.23137 2758 ft 155 kts 122°
2026-05-03 23:32 25.32068 55.24150 2555 ft 154 kts 122°
2026-05-03 23:32 25.31509 55.25162 2350 ft 154 kts 122°
2026-05-03 23:32 25.30953 55.26168 2148 ft 153 kts 122°
2026-05-03 23:33 25.30412 55.27190 1881 ft 153 kts 119°
2026-05-03 23:33 25.29897 55.28213 1661 ft 152 kts 121°
2026-05-03 23:33 25.29333 55.29200 1415 ft 152 kts 125°
2026-05-03 23:33 25.28741 55.30167 1137 ft 151 kts 122°
2026-05-03 23:34 25.28213 55.31160 984 ft 151 kts 121°
2026-05-03 23:34 25.27674 55.32152 808 ft 151 kts 123°
2026-05-03 23:34 25.27121 55.33130 647 ft 150 kts 122°
2026-05-03 23:34 25.26583 55.34121 465 ft 149 kts 122°
2026-05-03 23:35 25.26044 55.35089 347 ft 150 kts 123°
2026-05-03 23:35 25.25489 55.36066 172 ft 149 kts 122°
2026-05-03 23:35 25.24956 55.37032 34 ft 138 kts 122°
2026-05-03 23:35 25.24582 55.37703 27 ft 37 kts 122°
2026-05-03 23:36 25.24461 55.37793 27 ft 16 kts 204°
2026-05-03 23:36 25.24389 55.37735 25 ft 5 kts 239°
2026-05-03 23:36 25.24387 55.37691 22 ft 6 kts 288°
2026-05-03 23:36 25.24407 55.37647 24 ft 6 kts 295°
2026-05-03 23:37 25.24422 55.37598 23 ft 7 kts 282°
2026-05-03 23:37 25.24429 55.37524 21 ft 12 kts 272°
2026-05-03 23:37 25.24437 55.37424 21 ft 14 kts 283°
2026-05-03 23:37 25.24483 55.37330 22 ft 4 kts 300°
2026-05-03 23:38 25.24501 55.37296 21 ft 7 kts 301°
2026-05-03 23:38 25.24511 55.37272 22 ft 4 kts 276°
2026-05-03 23:38 25.24484 55.37248 21 ft 7 kts 209°
2026-05-03 23:38 25.24437 55.37217 22 ft 0 kts 211°
2026-05-03 23:39 25.24427 55.37210 22 ft 3 kts 211°